Home > Weather > Christchurch > Past weeks

Flag for New Zealand Past Weather in Christchurch, New Zealand — Yesterday and Last 2 Weeks

Now
43 °F

Quite cool.


Feels Like: 43 °F
Forecast: 35 / 57 °F
Wind: 1 mph from Northwest

Location: Christchurch Airport

Current Time: Jul 27, 2016 at 10:06:04 AM

Latest Report: Jul 27, 2016 at 9:30 AM


Visibility: N/A

Pressure: 29.71 "Hg

Humidity: 81%

Dew Point: 37 °F

Location of ChristchurchLocation

Past Weather in Christchurch — Graph

°F

Christchurch Temperature Yesterday

Maximum temperature yesterday: 52 °F (at 1:00 PM)
Minimum temperature yesterday: 27 °F (at 4:30 AM)
Average temperature yesterday: 38 °F

High & Low Weather Summary for the Past Weeks

 TemperatureHumidityPressure
High70 °F (Jul 23, 2:30 PM)100% (Jul 12, 8:00 PM)30.18 "Hg (Jul 12, 8:00 PM)
Low27 °F (Jul 26, 4:30 AM)33% (Jul 14, 4:30 PM)28.68 "Hg (Jul 24, 4:00 AM)
Average45 °F75%29.56 "Hg
* Reported Jul 12 8:00 AM — Jul 27 8:30 AM, Christchurch, Weather by CustomWeather, © 2016

Note: Actual official high and low records may vary slightly from our data, if they occured in-between our weather recording intervals... More about our weather records

Advertising

Christchurch Weather History for the Previous 24 Hours

Scroll right to see more
 ConditionsComfort  
Time TempWeatherWind HumidityBarometerVisibility
8:30 AM
Wed, Jul 27
34 °FChilly.2 mph87%29.71 "HgN/A
8:00 AM36 °FChilly.3 mph81%29.68 "HgN/A
7:30 AM36 °FChilly.3 mph87%29.68 "HgN/A
7:00 AM37 °FChilly.3 mph81%29.65 "HgN/A
6:30 AM37 °FChilly.3 mph81%29.65 "HgN/A
6:00 AM39 °FPassing clouds.2 mph75%29.62 "HgN/A
5:30 AM37 °FPassing clouds.5 mph81%29.59 "HgN/A
5:00 AM37 °FPassing clouds.2 mph81%29.62 "HgN/A
4:30 AM37 °FChilly.2 mph81%29.59 "HgN/A
4:00 AM36 °FChilly.3 mph87%29.59 "HgN/A
3:30 AM37 °FChilly.5 mph81%29.59 "HgN/A
3:00 AM36 °FChilly.3 mph87%29.59 "HgN/A
2:30 AM34 °FChilly.6 mph93%29.59 "HgN/A
2:00 AM32 °FChilly.3 mph100%29.59 "HgN/A
1:30 AM32 °FChilly.2 mph100%29.62 "HgN/A
1:00 AM32 °FChilly.2 mph100%29.62 "Hg6 mi
12:30 AM32 °FChilly.2 mph93%29.65 "HgN/A
12:00 AM30 °FChilly.3 mph100%29.65 "Hg4 mi
11:30 PM
Tue, Jul 26
32 °FChilly.1 mph100%29.65 "HgN/A
11:00 PM34 °FChilly.3 mph93%29.68 "HgN/A
10:30 PM37 °FChilly.2 mph87%29.71 "HgN/A
10:00 PM37 °FChilly.3 mph87%29.71 "HgN/A
9:30 PM37 °FChilly.6 mph87%29.71 "HgN/A
9:00 PM39 °FChilly.6 mph87%29.71 "HgN/A
8:30 PM39 °FChilly.5 mph93%29.71 "HgN/A
8:00 PM39 °FChilly.6 mph93%29.71 "HgN/A
7:30 PM43 °FQuite cool.9 mph87%29.74 "HgN/A
7:00 PM45 °FQuite cool.10 mph81%29.71 "HgN/A
6:30 PM43 °FQuite cool.8 mph87%29.74 "HgN/A
6:00 PM45 °FQuite cool.9 mph76%29.74 "HgN/A
5:30 PM46 °FCool.10 mph66%29.74 "HgN/A
5:00 PM46 °FCool.10 mph66%29.74 "HgN/A
4:30 PM46 °FCool.13 mph66%29.74 "HgN/A
4:00 PM48 °FCool.10 mph58%29.74 "HgN/A
3:30 PM48 °FCool.12 mph54%29.74 "HgN/A
3:00 PM50 °FCool.10 mph50%29.74 "HgN/A
2:30 PM50 °FCool.12 mph47%29.74 "HgN/A
2:00 PM52 °FCool.10 mph41%29.74 "HgN/A
1:30 PM52 °FCool.8 mph41%29.74 "HgN/A
1:00 PM52 °FCool.8 mph47%29.77 "HgN/A
12:30 PM48 °FCool.5 mph58%29.77 "HgN/A
12:00 PM46 °FCool.3 mph62%29.80 "HgN/A
11:30 AM46 °FCool.2 mph62%29.80 "HgN/A
11:00 AM45 °FQuite cool.3 mph71%29.80 "HgN/A
10:30 AM41 °FQuite cool.1 mph76%29.80 "HgN/A
10:00 AM39 °FChilly.1 mph75%29.80 "HgN/A
Weather by CustomWeather, © 2016

See weather overviewHow to use our weather pages